Harstad/Narvik

Airport
ICAO code: 
ENEV
Summary
ICAO Region: 
EUR
Territory: 
Location: 
Evenes, Norway,
Serving: 
Harstad/Narvik
Coordinates: 
Aerial View: 
68° 29' 18" N, 16° 40' 42" E
Airport WX: 
Low Level Turbulence
Metar
Observation
ENEV 170020Z 32004KT 9999 FEW027 SCT037 BKN053 M02/M04 Q0984 RMK WIND 1400FT 35011KT
Station
Evenes
Date/Time
2022-01-17 00:20:00
Wind direction
320°
Wind speed
04 kts
Lowest cloud amount
few clouds
Temperature
-2°C
Dew point
-4°C
Humidity
86%
QNH
984 hPa
Weather condition
n/a

Description

International airport at Evenes which serves the towns of Harstad and Narvik, northern Norway.

Climatology

Subpolar Oceanic climate (Köppen climate classification Cfc) - uniform precipitation distribution, temperatures are moderated by the proximity of the ocean and warm currents - cool summers and comparatively mild winters.

Runways

Designator Length Width Surface Rops
17/35 2815 45 ASP Yes/Yes
Airport map: 
Aerial View: 

Accidents and Serious Incidents at or in the vicinity of ENEV

SKYbrary Partners:

Safety knowledge contributed by: